This is the latest recevied weather packets stored in our database for station/object RN1M-13. If no packets are shown the sender has not sent any weather packets the latest 10 day(s).
| Time | Temp. | Humidity | Pressure | Rain* | Wind** | Luminosity | Snow |
|---|---|---|---|---|---|---|---|
| 1777516450 | 2.78° C | 100% | 1020.3 hPa | - | - | - | - |
| 1777515550 | 2.22° C | 100% | 1020.3 hPa | - | - | - | - |
| 1777514652 | 2.78° C | 100% | 1020.3 hPa | - | - | - | - |
| 1777513752 | 2.78° C | 100% | 1020.3 hPa | - | - | - | - |
| 1777511952 | 2.78° C | 100% | 1020.5 hPa | - | - | - | - |
| 1777510152 | 2.78° C | 100% | 1020.6 hPa | - | - | - | - |
| 1777509252 | 2.78° C | 100% | 1020.8 hPa | - | - | - | - |
| 1777508352 | 2.78° C | 100% | 1020.8 hPa | - | - | - | - |
| 1777507452 | 2.22° C | 100% | 1020.8 hPa | - | - | - | - |
| 1777506552 | 2.78° C | 100% | 1020.9 hPa | - | - | - | - |
| 1777505652 | 3.33° C | 100% | 1020.8 hPa | - | - | - | - |
| 1777498456 | 2.78° C | 100% | 1021.4 hPa | - | - | - | - |
| 1777493956 | 3.89° C | 100% | 1021.4 hPa | - | - | - | - |
| 1777491260 | 5° C | 100% | 1021.5 hPa | - | - | - | - |
| 1777490360 | 4.44° C | 100% | 1021.4 hPa | - | - | - | - |
| 1777489460 | 4.44° C | 100% | 1021.4 hPa | - | - | - | - |
| 1777484962 | 5° C | 93% | 1021.4 hPa | - | - | - | - |
| 1777484060 | 5° C | 100% | 1021.4 hPa | - | - | - | - |
| 1777483160 | 5° C | 100% | 1021.4 hPa | - | - | - | - |
| 1777482262 | 4.44° C | 100% | 1021.4 hPa | - | - | - | - |
| 1777480466 | 5° C | 100% | 1021.4 hPa | - | - | - | - |
| 1777475966 | 5.56° C | 79% | 1021.2 hPa | - | - | - | - |
| 1777473266 | 5.56° C | 82% | 1021.2 hPa | - | - | - | - |
| 1777472366 | 6.11° C | 71% | 1021.1 hPa | - | - | - | - |
| 1777468772 | 6.11° C | 67% | 1021.4 hPa | - | - | - | - |
* Rain since midnight (hover to see other rain measurements)
** Current wind speed in m/s (hover to see current wind gust speed)